SCP
0 0 0 0 0 0 0 0 0 0 0 0 0 0 0 0 0 0 0 0 0 0 0 0 0 0 0 0 1 1 1 1 1 1 1 1 1 1 1 1 1 1 1 1
0 0 0 0 0 0 0 0 0 0 0 0 0 0 0 0 0 0 0 0 0 0 0 0 0 0 0 0 0 0 1 1 1 1 1 1 1 1 1 1 1 0 0 0
0 0 0 0 0 0 0 0 0 0 0 0 0 0 0 0 0 0 0 0 0 0 0 0 0 0 0 0 0 0 0 0 0 0 0 0 0 0 0 0 0 0 0 0
0 0 0 0 0 0 0 0 0 0 0 0 0 0 0 0 0 0 0 0 0 0 0 0 0 0 0 0 0 0 0 0 0 0 0 0 0 0 0 0 0 0 0 0
0 0 0 0 0 0 0 0 0 0 0 0 0 0 0 0 0 0 0 0 0 0 0 0 0 0 0 0 0 0 0 0 0 0 0 0 0 0 0 0 0 0 0 0
0 0 0 0 0 0 0 0 0 0 0 0 0 0 0 0 0 0 0 0 0 0 0 0 0 0 0 0 0 0 0 0 0 0 0 0 0 0 0 0 0 0 0 0
0 0 0 0 0 0 0 0 0 0 0 0 0 0 0 0 0 0 0 0 0 0 0 0 0 0 0 0 0 0 0 0 0 0 0 0 0 0 0 0 0 0 0 0
0 0 0 0 0 0 0 0 0 0 0 0 0 0 0 0 0 0 0 0 0 0 0 0 0 0 0 0 0 0 0 0 0 0 0 0 0 0 0 0 0 0 0 0
0 0 0 0 0 0 0 0 0 0 0 0 0 0 0 0 0 0 0 0 0 0 0 0 0 0 0 0 0 0 0 0 0 0 0 0 0 0 0 0 0 0 0 0
0 0 0 0 0 0 0 0 0 0 0 0 0 0 0 0 0 0 0 0 0 0 0 0 0 0 0 0 0 0 0 0 0 0 0 0 0 0 0 0 0 0 0 0
0 0 0 0 0 0 0 0 0 0 0 0 0 0 0 0 0 0 0 0 0 0 0 0 0 0 0 0 0 0 0 0 0 0 0 0 0 0 0 0 0 0 0 0
0 0 0 0 0 0 0 0 0 0 0 0 0 0 0 0 0 0 0 0 0 0 0 0 0 0 0 0 0 0 0 0 0 0 0 0 0 0 0 0 0 0 0 0
0 0 0 0 0 0 0 0 0 0 0 0 0 0 0 0 0 0 0 0 0 0 0 0 0 0 0 0 0 0 0 0 0 0 0 0 0 0 0 0 0 0 0 0
0 0 0 0 0 0 0 0 0 0 0 0 0 0 0 0 0 0 0 0 0 0 0 0 0 0 0 0 0 0 0 0 0 0 0 0 0 0 0 0 0 0 0 0
0 0 0 0 0 0 0 0 0 0 0 0 0 0 0 0 0 0 0 0 0 0 0 0 0 0 0 0 0 0 0 0 0 0 0 0 0 0 0 0 0 0 0 0
0 0 0 0 0 0 0 0 0 0 0 0 0 0 0 0 0 0 0 0 0 0 0 0 0 0 0 0 0 0 0 0 0 0 0 0 0 0 0 0 0 0 0 0
0 0 0 0 0 0 0 0 0 0 0 0 0 0 0 0 0 0 0 0 0 0 0 0 0 0 0 0 0 0 0 0 0 0 0 0 0 0 0 0 0 0 0 0
0 0 0 0 0 0 0 0 0 0 0 0 0 0 0 0 0 0 0 0 0 0 0 0 0 0 0 0 0 0 0 0 0 0 0 0 0 0 0 0 0 0 0 0
0 0 0 0 0 0 0 0 0 0 0 0 0 0 0 0 0 0 0 0 0 0 0 0 0 0 0 0 0 0 0 0 0 0 0 0 0 0 0 0 0 0 0 0
0 0 0 0 0 0 0 0 0 0 0 0 0 0 0 0 0 0 0 0 0 0 0 0 0 0 0 0 0 0 0 0 0 0 0 0 0 0 0 0 0 0 0 0
0 0 0 0 0 0 0 0 0 0 0 0 0 0 0 0 0 0 0 0 0 0 0 0 0 0 0 0 0 0 0 0 0 0 0 0 0 0 0 0 0 0 0 0
0 0 0 0 0 0 0 0 0 0 0 0 0 0 0 0 0 0 0 0 0 0 0 0 0 0 0 0 0 0 0 0 0 0 0 0 0 0 0 0 0 0 0 0
0 0 0 0 0 0 0 0 0 0 0 0 0 0 0 0 0 0 0 0 0 0 0 0 0 0 0 0 0 0 0 0 0 0 0 0 0 0 0 0 0 0 0 0
0 0 0 0 0 0 0 0 0 0 0 0 0 0 0 0 0 0 0 0 0 0 0 0 0 0 0 0 0 0 0 0 0 0 0 0 0 0 0 0 0 0 0 0
0 0 0 0 0 0 0 0 0 0 0 0 0 0 0 0 0 0 0 0 0 0 0 0 0 0 0 0 0 0 0 0 0 0 0 0 0 0 0 0 0 0 0 0
0 0 0 0 0 0 0 0 0 0 0 0 0 0 0 0 0 0 0 0 0 0 0 0 0 0 0 0 0 0 0 0 0 0 0 0 0 0 0 0 0 0 0 0
Wind_Speed
13 9 7 8 10 9 8 7 7 5 5 6 4 9 10 9 9 10 10 9 8 8 8 6 6 6 7 6 5 4 5 5 4 4 5 4 4 4 3 1 2 3 4 4
6 5 13 13 11 11 6 3 1 2 4 7 5 7 8 7 7 8 10 9 9 9 8 6 5 5 6 5 3 2 4 4 4 4 4 4 4 4 3 2 1 2 3 3
3 7 14 15 9 8 8 6 4 5 7 8 5 7 9 7 6 7 8 9 9 9 8 6 5 4 3 2 1 2 2 2 4 5 5 5 5 5 4 4 2 1 2 3
2 6 10 9 6 8 5 6 8 6 5 5 4 2 6 8 8 8 8 9 8 7 6 5 4 3 1 0 0 1 1 2 3 4 5 7 7 6 6 4 4 5 4 4
7 8 8 7 4 6 5 5 4 7 8 7 7 4 1 7 8 9 9 8 7 6 5 3 2 1 1 2 2 1 1 2 3 4 6 6 7 6 6 7 8 7 6 5
15 11 6 6 6 6 6 5 5 12 9 7 4 3 5 8 9 9 8 7 5 3 3 2 1 1 2 3 4 3 3 4 4 5 6 6 7 7 8 9 9 8 5 4
15 11 9 5 6 6 8 7 3 4 0 8 10 6 5 8 9 9 7 5 3 2 1 1 2 3 3 4 4 4 3 4 5 5 6 6 7 8 9 9 7 7 6 5
6 5 6 5 7 7 8 7 4 6 6 3 6 4 5 9 9 7 5 2 0 1 1 3 3 3 4 5 5 5 5 4 5 5 6 6 8 7 6 7 8 8 7 7
5 6 5 1 4 6 8 7 9 9 9 2 5 7 7 7 7 4 2 2 3 4 5 6 6 7 7 7 6 6 5 5 5 6 7 7 6 6 7 7 8 8 7 8
6 9 7 2 2 1 7 9 7 7 8 7 3 7 6 5 4 5 5 6 7 7 8 9 9 9 8 7 6 6 5 5 6 7 6 8 7 7 7 8 8 8 8 8
7 7 8 5 3 5 6 7 7 7 8 8 6 7 8 5 3 5 7 7 7 8 9 9 8 8 8 8 8 7 7 6 6 6 6 6 6 7 8 7 8 7 8 8
7 6 8 8 10 8 4 5 6 5 6 7 6 7 4 2 5 7 7 8 8 8 9 9 9 9 9 9 10 9 9 8 7 7 6 7 7 7 8 10 8 8 8 8
9 6 6 4 6 10 5 3 5 7 7 6 7 5 4 4 9 10 9 9 8 8 9 9 8 9 9 9 9 10 10 10 10 9 8 8 9 9 9 9 9 9 9 9
5 6 7 6 3 5 5 4 3 5 6 8 8 9 7 10 10 9 8 7 8 9 8 9 9 8 8 9 8 9 10 10 11 10 10 9 9 9 9 9 9 9 9 9
4 8 9 9 8 7 8 7 6 6 6 8 9 10 8 9 9 8 8 9 9 9 9 10 10 9 9 9 9 9 10 10 10 11 11 10 9 9 9 9 10 10 10 12
1 6 11 12 11 8 10 9 6 5 6 8 9 9 9 9 9 9 9 9 8 9 10 11 11 10 10 10 10 9 10 9 9 10 11 11 10 10 10 10 10 10 10 11
5 5 9 12 12 11 9 4 2 5 8 8 9 8 9 10 9 9 7 6 7 9 10 11 11 10 9 9 8 9 9 10 10 10 11 11 11 12 11 12 12 12 11 11
5 7 7 11 13 13 6 0 2 3 5 7 9 5 9 9 9 7 7 6 7 9 10 10 10 11 11 10 9 9 11 11 11 11 12 11 12 12 12 12 12 11 10 10
7 5 7 9 12 11 3 2 1 3 7 6 5 7 9 10 9 6 7 5 6 8 8 9 10 11 11 10 10 10 11 12 12 12 12 12 12 13 13 13 12 11 10 10
6 6 7 9 13 15 11 7 6 3 2 8 7 7 8 9 8 4 7 7 8 8 8 9 10 10 10 10 10 11 12 12 12 13 13 13 13 13 14 13 12 10 9 10
8 9 10 11 13 8 8 7 2 6 4 3 6 6 7 6 5 7 7 7 7 8 9 9 9 9 8 9 9 11 12 12 12 13 13 13 13 13 13 11 9 9 9 10
8 8 9 9 10 3 5 3 5 4 1 4 5 5 5 5 6 6 7 7 7 8 9 10 8 8 8 9 9 11 12 12 12 13 14 14 13 13 12 11 10 9 9 9
6 6 5 5 6 1 5 5 3 2 2 4 5 5 4 5 6 6 6 6 7 8 9 9 9 9 9 8 8 11 11 12 13 13 14 14 15 13 12 10 10 8 7 6
8 6 6 7 8 8 9 8 4 3 3 3 3 3 4 5 6 6 6 6 7 7 8 9 10 11 10 9 9 10 10 11 12 13 14 13 13 13 11 8 7 7 6 6
11 11 11 12 10 10 9 7 5 3 3 3 3 3 4 4 5 5 5 5 6 7 7 8 9 10 11 10 10 10 10 11 12 13 13 13 12 11 10 9 7 7 4 3
12 11 9 9 7 7 7 6 4 4 5 5 5 5 4 4 4 5 5 5 6 7 7 8 9 11 11 11 10 9 9 10 11 12 12 10 10 10 9 9 8 5 5 4
Wind_Direction
237 240 279 286 272 258 243 209 186 173 232 254 185 143 143 150 147 140 136 129 120 114 113 109 103 100 95 86 77 62 47 36 4 16 347 339 341 332 313 313 53 14 343 340
263 305 296 277 263 276 284 312 97 144 274 272 176 146 134 143 137 132 130 131 134 133 128 129 135 122 105 98 90 86 51 28 3 6 319 303 322 306 294 347 38 12 349 337
189 234 256 270 294 315 327 342 301 250 246 255 221 170 140 134 132 138 141 141 142 145 142 142 133 121 120 113 94 61 51 5 1 344 321 335 324 309 322 330 318 350 327 310
278 243 252 281 309 303 312 308 297 289 268 265 242 220 153 162 176 166 161 154 146 138 140 148 156 149 145 174 140 95 55 15 357 337 332 329 314 314 317 317 320 321 304 284
312 280 269 283 268 272 272 257 303 343 341 333 4 2 239 192 185 174 170 155 147 150 152 158 169 170 309 327 346 2 43 21 354 338 319 315 313 317 315 318 310 304 290 269
308 289 281 288 283 279 280 275 32 33 18 337 300 273 207 203 187 175 166 152 154 167 176 172 234 281 308 316 316 331 28 16 357 335 323 315 315 313 309 300 292 290 285 281
307 309 305 302 305 321 302 294 344 14 259 249 222 224 191 171 156 151 140 136 157 176 196 240 276 296 307 310 324 343 5 359 343 329 321 319 315 307 293 288 297 308 312 310
281 277 284 333 341 322 298 301 299 292 273 225 180 192 114 103 103 105 107 109 136 315 329 306 311 331 339 340 355 355 354 339 330 319 311 307 296 294 301 317 323 310 298 294
298 307 282 348 328 316 316 323 317 305 314 357 146 136 117 123 124 106 65 18 4 4 347 343 354 354 352 355 358 351 343 335 327 317 306 291 291 312 314 309 298 296 299 301
308 315 314 341 265 303 325 332 343 331 339 337 73 101 117 121 54 22 14 13 7 355 355 0 356 350 353 350 349 345 340 331 323 314 310 316 324 311 299 301 299 295 291 289
336 313 306 308 350 350 335 354 357 339 345 334 353 80 100 73 25 16 12 9 2 359 356 351 347 352 351 344 340 342 336 328 321 317 316 313 306 305 303 296 292 293 295 295
351 320 319 352 12 332 321 356 344 334 334 315 323 101 104 100 45 38 15 9 11 5 352 347 347 349 344 339 337 333 330 324 320 319 314 308 306 304 301 301 300 298 293 290
345 317 306 5 355 293 284 14 341 332 318 317 329 96 189 51 46 32 17 6 356 357 352 346 348 345 340 339 333 329 325 322 321 318 314 313 309 306 302 300 297 294 291 288
285 291 307 322 292 285 311 326 330 319 322 333 344 354 358 40 23 13 360 349 351 354 352 349 346 340 340 332 329 325 321 320 317 318 315 309 304 302 300 298 295 293 290 287
286 307 318 310 310 313 315 312 314 314 320 311 326 328 21 33 10 1 352 353 348 348 348 345 340 335 331 329 326 321 319 318 317 314 310 306 303 301 299 297 296 293 290 289
181 308 307 304 302 286 286 287 277 288 297 300 312 324 35 20 5 357 350 340 336 345 342 337 333 331 328 325 322 321 318 318 317 311 308 306 304 302 299 299 297 294 292 290
299 299 306 304 309 298 301 302 286 322 320 322 317 337 21 3 351 341 336 342 351 343 335 335 334 328 323 321 323 320 320 319 316 312 308 307 306 305 303 305 304 299 297 293
261 298 298 292 300 296 310 345 330 339 325 312 307 5 17 354 348 7 51 36 350 336 339 337 328 323 322 326 325 324 322 319 316 312 310 311 309 307 307 305 300 298 297 294
203 243 282 293 294 298 310 203 166 334 311 324 1 16 352 351 328 85 60 13 352 349 342 330 323 321 323 325 329 326 320 318 315 314 315 315 313 310 307 304 302 300 297 295
200 200 250 274 289 295 311 101 91 332 347 47 26 359 345 336 320 5 19 3 4 347 333 325 323 323 325 329 329 322 318 317 317 319 318 315 312 309 305 301 299 298 296 293
220 226 242 264 275 292 80 99 295 312 62 10 351 348 336 347 325 326 338 357 352 336 329 329 330 327 327 326 325 319 317 319 321 319 315 313 311 308 301 299 301 300 297 296
284 277 272 275 283 333 101 309 343 13 14 328 334 332 337 324 313 324 340 347 341 333 332 335 330 327 325 327 325 318 318 323 321 318 315 314 312 309 308 306 302 301 298 298
279 292 307 315 321 296 259 298 325 336 307 311 313 328 331 315 316 326 336 341 335 332 333 331 328 324 324 329 328 318 321 324 322 319 316 314 312 307 305 303 303 303 301 301
313 353 312 291 285 291 294 297 284 258 251 272 295 308 304 300 312 323 331 332 330 332 329 329 327 325 325 328 328 322 323 325 322 319 317 313 310 309 310 308 305 305 308 311
303 292 277 272 272 271 270 277 268 255 227 237 257 264 271 285 297 312 322 328 332 325 324 326 325 323 324 327 325 325 328 327 322 319 316 314 310 310 311 310 307 304 308 304
287 292 297 301 312 301 297 289 258 236 231 236 246 259 266 275 292 307 316 325 320 318 324 325 326 325 326 326 326 329 331 329 323 317 316 314 311 312 313 313 312 292 277 258